Regional Weather Roundup
Issued by NWS

Home | Current Version | Previous Version | Graphics & Text | Print | Product List | Glossary On
Versions: 1 2 3 4 5 6 7 8 9 10 11 12 13 14 15 16 17 18 19 20 21 22 23 24 25 26 27 28 29 30 31 32 33 34 35 36 37 38 39 40 41 42 43 44 45 46 47 48 49 50
000
ASUS43 KLSX 210759
RWRMO

WEATHER SUMMARY FOR MISSOURI
NATIONAL WEATHER SERVICE SPRINGFIELD MO
300 AM CDT FRI JUL 21 2017

NOTE: "FAIR" INDICATES FEW OR NO CLOUDS BELOW 12,000 FEET WITH NO
       SIGNIFICANT WEATHER AND/OR OBSTRUCTIONS TO VISIBILITY.
       CURRENT SKY AND/OR WEATHER CONDITIONS ARE NOT AVAILABLE FOR
       CHILLICOTHE AND FARMINGTON.

MOZ001>031-035>038-043-044-053-054-210900-
...NORTHERN AND WESTERN MISSOURI...

CITY           SKY/WX    TMP DP  RH WIND       PRES   REMARKS
KANSAS CTY INT CLEAR     80  73  79 S10       29.95F
KANSAS C DTWN  CLEAR     83  74  74 S8        29.94F
LEE`S SUMMIT   CLEAR     81  74  79 SW10      29.97F
ST JOSEPH      CLEAR     78  75  90 S6        29.93S
CHILLICOTHE      N/A     80  76  87 S3        29.96S
KIRKSVILLE     MOCLDY    77  75  93 SE5       29.98S

$$
MOZ066>068-077>081-088>096-101>105-210900-
...SOUTHWEST MISSOURI...

CITY           SKY/WX    TMP DP  RH WIND       PRES   REMARKS
SPRINGFIELD    CLEAR     76  72  87 SW5       30.02S
JOPLIN         CLEAR     79  73  82 S8        30.01S

$$
MOZ032>034-039>042-045>050-055>058-069>072-210900-
...CENTRAL MISSOURI...

CITY           SKY/WX    TMP DP  RH WIND       PRES   REMARKS
COLUMBIA       CLEAR     80  73  79 SW5       29.99S
JEFFERSON CITY CLEAR     77  76  96 CALM      29.97S
ROLLA          CLEAR     75  71  87 SW8       30.01S
WARRENSBURG    CLEAR     75  70  83 SE3       29.97S
OSAGE BEACH    CLEAR     74  70  87 CALM      30.00S

$$
MOZ051-052-059>065-210900-
...EAST CENTRAL MISSOURI...

CITY           SKY/WX    TMP DP  RH WIND       PRES   REMARKS
ST LOUIS INTL  CLEAR     87  72  60 SW5       29.97S HX  93
SPIRIT OF STL  CLEAR     78  74  87 CALM      29.95F
ST CHARLES     CLEAR     78  76  93 MISG      29.94F

$$
MOZ072>076-082>087-097>100-106>115-210900-
...SOUTH CENTRAL AND SOUTHEAST MISSOURI...

CITY           SKY/WX    TMP DP  RH WIND       PRES   REMARKS
CAPE GIRARDEAU CLEAR     76  73  91 SE3       29.98F
FARMINGTON     CLEAR     80  74  81 CALM      30.01F
POPLAR BLUFF   PTCLDY    79  77  94 CALM      29.98F
WEST PLAINS    CLEAR     78  73  84 SW5       30.04F

$$




USA.gov is the U.S. government's official web portal to all federal, state and local government web resources and services.